FALCON 9 DEB (50208 NORAD) Tracking and Keplerian Element Data

This shows tracking and keplerian element data for the satellite.

Feedback or suggestion? Click here.




ElementValue
Catalog50208
NameFALCON 9 DEB
Epoch Orbit252
Epoch Day2.02052612
Epoch Year2022
RAAN292.0384
Inclination53.1886
Eccentricity0.0025548
Argument of Perigee208.6654
Mean Anonmoly151.2991
Mean Motion16.3747914
Decay Rate0.05279165
L11 50208U 21125BE 22002.02052612 .05279165 12081-4 44376-3 0 9998
L22 50208 53.1886 292.0384 0025548 208.6654 151.2991 16.37479140 2520

Live tracking and technical data element details for FALCON 9 DEB (NORAD 50208). FALCON 9 DEB can be tracked NOW for your location showing map with azimuth and elevation plus other details from your city location.

Track the satellite on the map from your city or location and see movement details for azimuth, elevation, latitude, longitude, range, height, and movement on the map or in text.







IsCatalogInMostPopularTable: catalog: 50208, numindb: 21
Update: records affected: 1



GetName: 50208 FALCON 9 DEB

Hit Count: updated at: Mon, 23 May 2022 20:18:53 GMT